Location: Unspecified
(43.1763°N, 79.4719°W)
Time: 23:28:54
(UTC-04:00)

CZ-3 Stage 3 - Visible Passes

Search period start: 25 September 2018 00:00
Search period end: 05 October 2018 00:00
Orbit: 368 x 34824 km, 30.5° (Epoch: 24 September)

Date Brightness Start Highest point End Pass type
(mag) Time Alt. Az. Time Alt. Az. Time Alt. Az.
25 Sep 7.3 16:30:16 10° S 00:31:23 72° SSW 01:47:13 10° ESE visible
26 Sep 8.2 14:29:50 10° E 20:05:58 46° E 21:58:29 10° E visible
27 Sep 6.7 20:03:05 10° SW 22:35:10 44° WSW 05:11:28 10° S visible
28 Sep 7.3 16:19:32 10° S 00:14:20 72° SSW 01:37:02 10° ESE visible
29 Sep 8.2 14:16:14 10° E 19:54:22 46° E 21:48:05 10° E visible
30 Sep 6.7 19:52:20 10° SW 22:24:03 45° WSW 05:01:10 10° S visible
01 Oct 7.3 16:08:50 10° S 23:52:50 72° SSW 01:26:51 10° ESE visible
02 Oct 8.3 14:02:40 10° E 19:42:47 45° E 21:37:35 10° E visible
03 Oct 6.7 19:41:37 10° SW 22:12:57 45° WSW 04:50:52 10° S visible
